This demonstration page uses our WeatherBlox Daily Observations layout. Learn more.

Left ArrowRight Arrow

Hourly Observations for August 26, 2015

Temp ( °F °C ) Dew Point ( °F °C ) Humidity (%) Winds ( mph kmh ) Pressure ( in mb ) Visibility ( mi km ) Precip ( " mm )
12:53 am 00:53 Clear 79 26.1 61 16.1 54 54 SE 13 20 30.01 1016 10 16 0.00 0.00
1:53 am 01:53 Clear 77 25 61 16.1 58 58 ESE 10 17 30.00 1016 10 16 0.00 0.00
2:53 am 02:53 Clear 75 23.9 62 16.7 64 64 N 6 9 30.00 1016 10 16 0.00 0.00
3:53 am 03:53 Clear 73 22.8 62 16.7 69 69 N 5 7 29.99 1016 10 16 0.00 0.00
4:53 am 04:53 Clear 71 21.7 62 16.7 73 73 NE 3 6 29.98 1015 10 16 0.00 0.00
5:53 am 05:53 Clear 70 21.1 62 16.7 76 76 NE 6 9 29.99 1016 10 16 0.00 0.00
6:53 am 06:53 Clear 70 21.1 62 16.7 76 76 E 6 9 30.00 1016 10 16 0.00 0.00
7:53 am 07:53 Sunny 72 22.2 62 16.7 71 71 E 5 7 30.03 1017 10 16 0.00 0.00
8:53 am 08:53 Sunny 76 24.4 62 16.7 62 62 E 7 11 30.05 1018 10 16 0.00 0.00
9:53 am 09:53 Sunny 81 27.2 61 16.1 51 51 SE 9 15 30.05 1018 10 16 0.00 0.00
10:53 am 10:53 Sunny 85 29.4 61 16.1 45 45 SSE 8 13 30.05 1018 10 16 0.00 0.00
11:53 am 11:53 Sunny 89 31.7 60 15.6 38 38 Calm 30.06 1018 10 16 0.00 0.00
12:53 pm 12:53 Sunny 92 33.3 58 14.4 32 32 VRB 7 11 30.04 1017 10 16 0.00 0.00
1:53 pm 13:53 Sunny 94 34.4 56 13.3 28 28 ESE 12 19 30.02 1017 10 16 0.00 0.00
2:53 pm 14:53 Sunny 96 35.6 55 12.8 25 25 ESE 10 17 30.00 1016 10 16 0.00 0.00
3:53 pm 15:53 Sunny 97 36.1 54 12.2 24 24 SE 8 13 29.98 1015 10 16 0.00 0.00
4:53 pm 16:53 Sunny 97 36.1 52 11.1 22 22 SSE 13 20 29.96 1015 10 16 0.00 0.00
5:53 pm 17:53 Sunny 95 35 51 10.6 23 23 SE 12 19 29.94 1014 10 16 0.00 0.00
6:53 pm 18:53 Sunny 95 35 51 10.6 23 23 ESE 8 13 29.93 1014 10 16 0.00 0.00
7:53 pm 19:53 Sunny 93 33.9 55 12.8 28 28 ESE 16 26 29.93 1014 10 16 0.00 0.00
8:53 pm 20:53 Clear 90 32.2 56 13.3 32 32 ESE 10 17 29.95 1014 10 16 0.00 0.00
9:53 pm 21:53 Clear 88 31.1 57 13.9 35 35 ESE 10 17 29.96 1015 10 16 0.00 0.00
10:53 pm 22:53 Clear 84 28.9 58 14.4 41 41 SE 9 15 29.99 1016 10 16 0.00 0.00
11:53 pm 23:53 Clear 80 26.7 59 15 49 49 E 6 9 30.00 1016 10 16 0.00 0.00

Powered by AerisWeather